Location: Unspecified
(40.9447°N, 78.9903°W)
Time: 23:24:15
(UTC-04:00)

Envisat - Visible Passes

Search period start: 02 October 2023 00:00
Search period end: 12 October 2023 00:00
Orbit: 763 x 764 km, 98.2° (Epoch: 02 October)

Date Brightness Start Highest point End Pass type
(mag) Time Alt. Az. Time Alt. Az. Time Alt. Az.
02 Oct 3.9 04:27:56 10° NNE 04:32:47 44° E 04:33:39 40° SE visible
02 Oct 4.2 06:07:35 10° NNW 06:11:28 23° WNW 06:13:48 16° W visible
03 Oct 5.2 03:51:41 10° NE 03:55:20 20° E 03:55:52 19° E visible
03 Oct 3.2 05:29:41 10° N 05:34:33 48° WNW 05:36:02 37° WSW visible
04 Oct 3.0 04:52:20 10° NNE 04:57:26 77° ESE 04:58:16 61° SSE visible
04 Oct 4.7 06:33:16 10° NNW 06:35:45 14° WNW 06:38:13 10° W visible
05 Oct 4.4 04:15:32 10° NNE 04:20:06 33° E 04:20:29 33° ESE visible
05 Oct 3.9 05:54:39 10° N 05:58:58 29° WNW 06:00:39 24° W visible
06 Oct 5.6 03:39:45 10° ENE 03:42:35 15° E 03:42:43 15° E visible
06 Oct 2.9 05:16:57 10° N 05:21:58 63° WNW 05:22:52 53° WSW visible
07 Oct 3.4 04:39:46 10° NNE 04:44:47 58° E 04:45:05 57° ESE visible
07 Oct 4.5 06:19:59 10° NNW 06:23:17 18° WNW 06:25:15 14° W visible
08 Oct 4.9 04:03:12 10° NE 04:07:19 26° E 04:07:19 26° E visible
08 Oct 3.5 05:41:48 10° N 05:46:26 37° WNW 05:47:28 33° W visible
09 Oct 5.9 03:28:30 10° ENE 03:29:32 11° E 03:29:32 11° E visible
09 Oct 2.8 05:04:17 10° N 05:09:23 82° WNW 05:09:41 77° SW visible
09 Oct 4.9 06:46:36 10° NW 06:47:30 10° WNW 06:48:25 10° WNW visible
10 Oct 4.0 04:27:16 10° NNE 04:31:54 43° E 04:31:54 43° E visible
10 Oct 4.1 06:06:55 10° NNW 06:10:48 22° WNW 06:12:03 20° W visible
11 Oct 5.3 03:51:01 10° NE 03:54:06 19° E 03:54:06 19° E visible
11 Oct 3.2 05:29:00 10° N 05:33:52 48° WNW 05:34:15 47° W visible
